Hourly Data Report for July 17, 2021

SECHELT AUT
BRITISH COLUMBIA
Current Station Operator: ECCC - MSC

49°27'28.788" N
123°42'54.945" W
86.20 m
1047172
71638
VOU

Download Data

Hourly Data (July 2021)
Hourly Data Report for July 17, 2021
TIME
LST
Temp Definition
°C
Dew Point Definition
°C
Rel Hum Definition
%
Precip. Amount Definition
mm

Wind Dir Definition
10's deg

Wind Spd Definition
km/h
Visibility Definition
km
Stn Press Definition
kPa
Hmdx Definition


Wind Chill Definition


Weather Definition


00:00 16.6 12.3 75 0.0 13 10   100.59     LegendNANA
01:00 16.9 12.8 77 0.0 13 10   100.58     LegendNANA
02:00 17.0 13.5 80 0.0 14 12   100.62     LegendNANA
03:00 16.4 13.5 83 0.0 13 13   100.62     LegendNANA
04:00 16.2 13.2 83 0.0 12 12   100.64     LegendNANA
05:00 16.2 12.4 78 0.0 12 14   100.67     LegendNANA
06:00 16.9 11.8 72 0.0 13 15   100.72     LegendNANA
07:00 17.1 12.1 73 0.0 12 14   100.77     LegendNANA
08:00 17.8 12.7 72 0.0 12 17   100.80     LegendNANA
09:00 17.7 12.9 73 0.0 14 15   100.82     LegendNANA
10:00 19.7 13.8 68 0.0 13 21   100.85     LegendNANA
11:00 20.8 13.5 63 0.0 14 14   100.85     LegendNANA
12:00 20.3 12.1 59 0.0 15 17   100.88     LegendNANA
13:00 21.2 11.6 54 0.0 15 18   100.89     LegendNANA
14:00 23.5 11.5 47 0.0 14 20   100.87 26   LegendNANA
15:00 21.6 11.5 53 0.0 15 16   100.84     LegendNANA
16:00 21.9 13.1 58 0.0 16 14   100.81 25   LegendNANA
17:00 21.1 14.2 65 0.0 14 13   100.78 25   LegendNANA
18:00 19.9 13.8 68 0.0 14 11   100.78     LegendNANA
19:00 20.8 14.0 65 0.0 21 3   100.80     LegendNANA
20:00 17.8 14.4 80 0.0 23 1   100.81     LegendNANA
21:00 16.3 13.2 82 0.0 33 3   100.83     LegendNANA
22:00 15.5 12.8 84 0.0 30 2   100.83     LegendNANA
23:00 15.2 12.4 83 0.0 29 2   100.84     LegendNANA

Notes on Data Quality.

Legend

  • E = Estimated
  • M = Missing
  • NA = Not Available*
  • [empty] = Indicates an unobserved value
Date modified: